• In Netherlands
  • List of Countries
  • For 7 days
  • Water Temperature
  • Satellite Maps
  • Weather Map
  • Weather Widgets
  • user-avatar
    Login

    Hourly Weather Río Gallegos

    Today, 28 February, Tuesday

    Time Temperature Precipitation Wind Pressure Humidity
    00:00 +15°C° 0 mm 7 mps 742 mmHg 72%
    01:00 +14°C° 0 mm 6 mps 741 mmHg 72%
    02:00 +14°C° 0 mm 6 mps 739 mmHg 70%
    03:00 +15°C° 0 mm 6 mps 738 mmHg 69%
    04:00 +15°C° 0 mm 6 mps 737 mmHg 68%
    05:00 +16°C° 0.1 mm 7 mps 736 mmHg 70%
    06:00 +17°C° 0.1 mm 7 mps 735 mmHg 71%
    07:00 +17°C° 0.1 mm 8 mps 734 mmHg 73%
    08:00 +20°C° 0 mm 8 mps 733 mmHg 66%
    09:00 +21°C° 0 mm 9 mps 732 mmHg 60%
    10:00 +22°C° 0 mm 9 mps 732 mmHg 53%
    11:00 +23°C° 0.2 mm 8 mps 731 mmHg 51%
    12:00 +23°C° 0.2 mm 7 mps 731 mmHg 49%
    13:00 +23°C° 0.2 mm 6 mps 730 mmHg 47%
    14:00 +22°C° 1.5 mm 7 mps 730 mmHg 50%
    15:00 +21°C° 1.5 mm 7 mps 730 mmHg 53%
    16:00 +20°C° 1.5 mm 8 mps 729 mmHg 56%
    17:00 +15°C° 0.6 mm 12 mps 731 mmHg 59%
    18:00 +11°C° 0.6 mm 15 mps 732 mmHg 61%
    19:00 +9°C° 0.6 mm 18 mps 734 mmHg 63%
    20:00 +7°C° 0 mm 17 mps 735 mmHg 62%
    21:00 +6°C° 0 mm 16 mps 736 mmHg 61%
    22:00 +6°C° 0 mm 15 mps 737 mmHg 59%
    23:00 +6°C° 0 mm 14 mps 738 mmHg 60%

    Tomorrow, 1 March, Wednesday

    Time Temperature Precipitation Wind Pressure Humidity
    00:00 +5°C° 0 mm 14 mps 738 mmHg 61%
    01:00 +5°C° 0 mm 13 mps 739 mmHg 62%
    02:00 +5°C° 0 mm 13 mps 739 mmHg 63%
    03:00 +5°C° 0 mm 13 mps 739 mmHg 64%
    04:00 +4°C° 0 mm 13 mps 739 mmHg 64%
    05:00 +5°C° 0 mm 13 mps 739 mmHg 64%
    06:00 +5°C° 0 mm 13 mps 739 mmHg 63%
    07:00 +5°C° 0 mm 13 mps 739 mmHg 63%
    08:00 +7°C° 0 mm 13 mps 739 mmHg 59%
    09:00 +8°C° 0 mm 14 mps 739 mmHg 55%
    10:00 +9°C° 0 mm 14 mps 739 mmHg 51%
    11:00 +10°C° 0 mm 14 mps 739 mmHg 49%
    12:00 +10°C° 0 mm 14 mps 739 mmHg 47%
    13:00 +10°C° 0 mm 14 mps 739 mmHg 45%
    14:00 +10°C° 0 mm 13 mps 739 mmHg 46%
    15:00 +10°C° 0 mm 13 mps 739 mmHg 46%
    16:00 +10°C° 0 mm 12 mps 739 mmHg 47%
    17:00 +9°C° 0 mm 11 mps 740 mmHg 52%
    18:00 +8°C° 0 mm 9 mps 740 mmHg 57%
    19:00 +9°C° 0 mm 8 mps 741 mmHg 62%
    20:00 +8°C° 0 mm 7 mps 741 mmHg 65%
    21:00 +8°C° 0 mm 7 mps 741 mmHg 68%
    22:00 +7°C° 0 mm 6 mps 742 mmHg 72%
    23:00 +7°C° 0 mm 6 mps 742 mmHg 74%

    Day after tomorrow, 2 March, Thursday

    Time Temperature Precipitation Wind Pressure Humidity
    00:00 +6°C° 0 mm 5 mps 742 mmHg 76%
    01:00 +6°C° 0 mm 5 mps 742 mmHg 78%
    02:00 +6°C° 0.2 mm 5 mps 743 mmHg 79%
    03:00 +5°C° 0.2 mm 6 mps 743 mmHg 79%
    04:00 +5°C° 0.2 mm 6 mps 744 mmHg 79%
    05:00 +7°C° 0 mm 6 mps 744 mmHg 76%
    06:00 +6°C° 0 mm 7 mps 744 mmHg 72%
    07:00 +6°C° 0 mm 7 mps 745 mmHg 68%
    08:00 +9°C° 0 mm 7 mps 745 mmHg 63%
    09:00 +10°C° 0 mm 7 mps 745 mmHg 57%
    10:00 +11°C° 0 mm 7 mps 745 mmHg 52%
    11:00 +12°C° 0.3 mm 7 mps 746 mmHg 52%
    12:00 +12°C° 0.3 mm 7 mps 746 mmHg 51%
    13:00 +12°C° 0.3 mm 7 mps 746 mmHg 51%
    14:00 +12°C° 0.3 mm 7 mps 746 mmHg 51%
    15:00 +12°C° 0.3 mm 7 mps 746 mmHg 51%
    16:00 +12°C° 0.3 mm 7 mps 747 mmHg 51%
    17:00 +11°C° 0.1 mm 6 mps 747 mmHg 55%
    18:00 +10°C° 0.1 mm 5 mps 748 mmHg 60%
    19:00 +10°C° 0.1 mm 4 mps 748 mmHg 64%
    20:00 +10°C° 0.1 mm 4 mps 749 mmHg 66%
    21:00 +8°C° 0.1 mm 4 mps 749 mmHg 68%
    22:00 +8°C° 0.1 mm 4 mps 750 mmHg 69%
    23:00 +8°C° 0 mm 4 mps 750 mmHg 71%

    3 March, Friday

    Time Temperature Precipitation Wind Pressure Humidity
    00:00 +7°C° 0 mm 4 mps 750 mmHg 72%
    01:00 +7°C° 0 mm 4 mps 751 mmHg 74%
    02:00 +6°C° 0 mm 4 mps 751 mmHg 75%
    03:00 +6°C° 0 mm 4 mps 752 mmHg 77%
    04:00 +5°C° 0 mm 4 mps 752 mmHg 79%
    05:00 +6°C° 0 mm 4 mps 753 mmHg 79%
    06:00 +7°C° 0 mm 3 mps 754 mmHg 78%
    07:00 +8°C° 0 mm 3 mps 754 mmHg 78%
    08:00 +9°C° 0 mm 3 mps 755 mmHg 74%
    09:00 +10°C° 0 mm 3 mps 755 mmHg 71%
    10:00 +11°C° 0 mm 3 mps 756 mmHg 68%
    11:00 +11°C° 0.2 mm 3 mps 756 mmHg 66%
    12:00 +12°C° 0.2 mm 3 mps 756 mmHg 64%
    13:00 +12°C° 0.2 mm 3 mps 757 mmHg 62%
    14:00 +12°C° 0.2 mm 3 mps 757 mmHg 63%
    15:00 +12°C° 0.2 mm 3 mps 757 mmHg 64%
    16:00 +12°C° 0.2 mm 4 mps 757 mmHg 65%
    17:00 +12°C° 0.2 mm 4 mps 758 mmHg 69%
    18:00 +11°C° 0.2 mm 4 mps 758 mmHg 73%
    19:00 +10°C° 0.2 mm 4 mps 758 mmHg 77%
    20:00 +10°C° 0.2 mm 3 mps 759 mmHg 77%
    21:00 +10°C° 0.2 mm 3 mps 759 mmHg 78%
    22:00 +9°C° 0.2 mm 3 mps 759 mmHg 78%
    23:00 +9°C° 0 mm 3 mps 759 mmHg 79%

    4 March, Saturday

    Time Temperature Precipitation Wind Pressure Humidity
    00:00 +8°C° 0 mm 3 mps 759 mmHg 79%
    01:00 +8°C° 0 mm 3 mps 759 mmHg 80%
    02:00 +7°C° 0 mm 2 mps 758 mmHg 81%
    03:00 +7°C° 0 mm 2 mps 758 mmHg 81%
    04:00 +8°C° 0 mm 1 mps 758 mmHg 82%
    05:00 +8°C° 0 mm 1 mps 758 mmHg 78%
    06:00 +9°C° 0 mm 1 mps 758 mmHg 74%
    07:00 +10°C° 0 mm 1 mps 758 mmHg 69%
    08:00 +11°C° 0 mm 1 mps 758 mmHg 66%
    09:00 +12°C° 0 mm 1 mps 758 mmHg 62%
    10:00 +13°C° 0 mm 1 mps 758 mmHg 59%
    11:00 +13°C° 0 mm 1 mps 757 mmHg 58%
    12:00 +14°C° 0 mm 2 mps 757 mmHg 56%
    13:00 +14°C° 0 mm 2 mps 757 mmHg 55%
    14:00 +14°C° 0.1 mm 2 mps 757 mmHg 58%
    15:00 +13°C° 0.1 mm 3 mps 757 mmHg 60%
    16:00 +12°C° 0.1 mm 3 mps 757 mmHg 63%
    17:00 +11°C° 0.3 mm 3 mps 757 mmHg 69%
    18:00 +11°C° 0.3 mm 4 mps 757 mmHg 74%
    19:00 +10°C° 0.3 mm 4 mps 758 mmHg 80%
    20:00 +10°C° 0.1 mm 4 mps 758 mmHg 80%
    21:00 +8°C° 0.1 mm 4 mps 758 mmHg 80%
    22:00 +8°C° 0.1 mm 4 mps 758 mmHg 80%
    23:00 +8°C° 0 mm 4 mps 758 mmHg 80%

    5 March, Sunday

    Time Temperature Precipitation Wind Pressure Humidity
    00:00 +7°C° 0 mm 4 mps 757 mmHg 81%
    01:00 +7°C° 0 mm 4 mps 757 mmHg 81%
    02:00 +6°C° 0.1 mm 5 mps 758 mmHg 81%
    03:00 +5°C° 0.1 mm 6 mps 758 mmHg 82%
    04:00 +5°C° 0.1 mm 7 mps 758 mmHg 82%
    05:00 +6°C° 0 mm 7 mps 758 mmHg 79%
    06:00 +6°C° 0 mm 8 mps 758 mmHg 75%
    07:00 +7°C° 0 mm 8 mps 758 mmHg 72%
    08:00 +9°C° 0 mm 8 mps 759 mmHg 68%
    09:00 +10°C° 0 mm 8 mps 759 mmHg 64%
    10:00 +11°C° 0 mm 9 mps 759 mmHg 60%
    11:00 +11°C° 0.1 mm 8 mps 759 mmHg 59%
    12:00 +12°C° 0.1 mm 8 mps 759 mmHg 58%
    13:00 +14°C° 0.1 mm 7 mps 759 mmHg 58%
    14:00 +13°C° 0.2 mm 8 mps 759 mmHg 58%
    15:00 +12°C° 0.2 mm 8 mps 759 mmHg 58%
    16:00 +12°C° 0.2 mm 8 mps 759 mmHg 57%
    17:00 +11°C° 0.1 mm 7 mps 760 mmHg 61%
    18:00 +10°C° 0.1 mm 6 mps 761 mmHg 65%
    19:00 +9°C° 0.1 mm 5 mps 761 mmHg 69%
    20:00 +9°C° 0 mm 5 mps 761 mmHg 71%
    21:00 +8°C° 0 mm 5 mps 762 mmHg 73%
    22:00 +7°C° 0 mm 5 mps 762 mmHg 74%
    23:00 +7°C° 0 mm 5 mps 762 mmHg 75%
    Show more